Wind_Speed
20 20 20 20 19 18 18 18 19 20 19 19 18 17 17 16 16 16 16 16 16 16 17 18 19 20 21 20 20 19 19 20 20 21 22 22 23 23 23 22 22 23
18 18 19 19 18 17 17 17 17 18 18 18 18 17 17 17 16 16 16 15 15 15 15 16 17 19 20 20 20 19 19 19 20 20 20 21 21 22 22 22 21 21
17 17 17 18 18 18 18 17 17 17 17 17 17 17 17 17 16 16 16 16 15 15 15 15 15 17 18 19 20 19 19 20 20 20 20 20 21 21 21 22 21 21
19 18 17 17 17 17 18 18 19 18 18 17 17 17 17 17 17 17 17 17 16 16 15 15 15 16 17 18 19 19 20 20 20 20 20 20 21 21 21 22 22 22
20 19 19 18 18 18 18 19 18 18 18 17 16 16 16 15 16 16 17 17 18 18 17 17 16 16 17 18 19 20 20 20 20 20 21 21 21 22 22 23 23 23
20 20 21 21 21 21 20 20 19 18 18 16 15 15 15 15 14 14 14 15 16 18 19 19 19 19 19 19 19 20 21 21 21 21 21 22 22 23 23 24 24 25
22 22 23 24 24 23 22 21 20 20 19 17 15 15 15 15 14 13 13 14 14 15 17 19 20 21 21 21 21 22 22 22 22 22 22 23 24 24 25 25 26 26
25 25 25 25 26 25 24 23 22 21 20 19 18 16 15 15 16 16 16 17 17 16 16 17 18 20 21 22 23 23 24 24 25 25 25 25 25 26 26 27 27 27
28 27 26 27 28 29 28 27 26 25 23 22 21 19 17 16 16 17 18 18 19 19 18 17 18 18 19 20 21 22 23 24 25 26 27 28 29 29 29 29 29 29
29 28 28 29 30 31 31 30 30 29 27 25 24 23 22 20 18 18 18 18 19 20 20 20 20 20 20 20 21 22 22 23 24 25 27 28 30 31 32 32 32 32
29 30 30 30 31 32 34 34 33 32 31 30 29 27 26 24 23 22 22 21 21 21 22 23 23 22 21 22 23 24 24 24 25 26 27 28 29 30 32 33 34 34
33 33 33 33 33 33 35 37 37 36 34 34 34 32 30 29 28 28 28 28 26 24 24 24 24 23 23 24 26 27 28 28 28 28 29 29 29 29 30 32 34 35
36 36 36 36 35 35 37 40 41 39 38 37 37 37 35 34 34 33 33 33 33 31 29 27 26 26 27 28 29 29 30 31 31 31 32 32 32 31 31 32 34 35
40 40 40 40 39 38 40 41 43 42 42 41 40 40 39 37 37 37 37 37 37 36 35 32 31 31 32 32 33 31 31 31 32 33 35 35 36 35 35 34 34 35
42 42 42 42 42 42 42 43 44 44 43 43 43 43 42 40 39 38 39 39 40 40 39 37 36 36 36 36 36 36 35 35 36 37 38 38 39 39 39 39 38 38
41 42 43 44 44 43 43 44 45 45 44 44 44 44 43 42 41 41 41 42 43 43 42 41 40 40 39 40 40 40 41 40 39 39 38 37 37 38 39 40 41 40
44 44 45 46 46 45 44 44 45 46 46 46 46 46 46 45 45 45 45 45 45 45 44 44 43 42 42 42 43 44 44 43 41 39 38 38 38 38 39 40 41 42
52 50 50 51 51 50 50 48 48 48 48 49 49 50 51 51 51 50 50 49 48 47 47 47 47 47 46 45 45 45 46 46 44 43 43 44 44 44 45 46 45 44
55 55 55 55 55 56 56 55 53 52 52 52 53 54 55 55 55 55 54 52 51 50 50 50 51 51 50 48 47 47 47 48 47 47 47 48 48 49 50 50 48 46
57 57 57 57 58 58 58 58 58 57 56 56 56 57 57 57 58 57 56 55 53 53 53 52 53 53 53 52 51 49 48 47 47 47 47 48 49 49 48 48 48 48
59 59 58 58 58 58 58 59 59 58 58 58 57 57 57 57 57 57 57 56 56 55 55 55 54 54 54 53 53 52 51 49 48 47 47 48 49 48 45 43 44 47
59 59 59 59 59 58 58 58 58 57 57 57 57 57 57 57 57 57 57 58 57 58 57 57 56 56 55 55 54 54 54 53 51 50 49 49 50 50 49 48 47 48
58 58 58 58 58 58 58 58 58 57 57 57 57 57 57 58 58 58 58 58 58 58 58 58 58 57 56 56 56 56 56 56 55 53 52 51 51 52 53 54 54 53
55 55 56 56 56 56 57 57 57 57 57 57 57 57 57 58 58 58 58 58 57 57 57 57 57 56 57 58 59 58 57 55 54 54 53 53 53 53 54 54 55 55
53 53 53 54 54 54 54 55 55 55 55 55 55 56 56 56 56 57 57 57 57 57 56 55 54 54 55 56 54 51 50 50 51 51 52 53 53 53 53 53 53 53
52 52 52 52 53 53 53 53 54 54 54 54 54 54 54 55 55 55 55 56 56 55 54 52 50 49 50 48 47 47 48 49 50 50 51 51 51 51 52 52 52 52
Wind_Direction
259 259 260 262 264 266 267 269 271 273 274 273 273 272 270 271 272 273 270 266 262 260 259 260 261 264 265 265 263 261 259 259 259 259 259 259 258 258 259 258 254 253
260 260 261 263 264 266 267 269 269 271 273 273 273 272 271 272 274 276 276 272 266 262 259 258 259 260 262 263 263 262 260 258 258 259 260 260 260 259 259 259 257 254
259 258 259 260 262 264 265 265 264 264 264 266 268 268 267 267 269 271 274 274 270 266 262 259 259 259 260 261 261 260 259 257 257 257 257 258 258 259 259 259 258 256
258 257 258 260 261 261 262 263 263 262 261 262 263 265 265 264 263 264 265 267 267 266 263 261 260 260 260 262 262 262 259 257 255 254 255 255 256 257 257 258 259 258
258 259 257 257 256 255 256 258 261 263 263 263 264 265 267 267 265 262 262 263 263 262 261 259 258 258 259 261 262 263 263 261 259 256 253 253 253 254 255 256 257 259
257 258 256 254 253 253 253 254 257 261 263 266 267 267 268 269 269 267 265 264 264 263 262 259 257 256 256 257 258 260 261 262 264 263 261 259 257 255 255 255 256 258
258 259 259 258 257 257 257 257 259 262 263 265 266 267 267 266 265 268 270 272 272 271 269 266 263 260 258 257 256 257 258 259 261 263 265 266 265 264 261 260 259 260
259 260 261 262 262 260 259 260 262 264 265 266 266 265 264 262 260 262 268 274 276 276 275 272 270 268 266 263 262 261 260 260 260 261 262 264 265 266 267 266 265 264
257 257 258 259 259 259 259 260 262 263 265 267 267 265 263 259 256 258 263 268 271 271 271 272 273 273 272 269 268 267 267 267 267 266 265 264 264 264 264 266 266 266
256 254 255 256 257 258 260 261 263 264 266 267 267 266 263 259 256 257 259 261 263 264 265 269 272 275 276 275 272 271 271 272 272 272 272 271 270 268 267 266 265 265
255 254 256 257 257 259 260 261 262 263 265 268 268 267 265 263 262 260 257 256 258 261 263 265 267 269 272 273 274 273 273 272 272 272 272 272 273 273 273 272 270 268
258 258 259 258 257 258 260 261 262 262 264 266 268 269 268 267 266 265 261 259 260 264 267 265 263 265 268 270 270 272 272 272 272 271 270 270 270 271 272 274 275 274
260 260 260 259 258 259 259 259 260 261 263 265 267 269 270 270 269 267 267 268 268 270 273 269 263 264 271 273 271 271 270 270 271 272 272 270 269 268 268 270 272 274
261 260 260 260 260 259 258 258 259 262 264 265 266 269 271 272 271 270 271 273 273 273 275 274 270 269 273 275 274 273 272 269 269 272 276 276 274 271 269 269 271 272
259 258 260 262 262 261 259 258 259 261 263 265 266 268 269 270 272 272 272 273 274 274 276 277 276 275 275 275 275 275 276 275 274 275 277 277 276 274 272 271 272 273
255 255 256 258 260 260 260 259 259 260 262 264 265 266 267 269 271 271 271 272 273 273 275 277 277 277 276 276 276 277 278 279 277 276 276 275 275 276 276 275 274 272
259 258 258 258 259 260 261 261 260 260 260 262 262 264 266 269 271 271 271 272 273 273 275 276 277 277 276 276 277 278 279 280 277 274 274 274 275 275 276 278 277 274
262 262 261 262 262 263 264 264 264 263 262 263 263 265 267 269 271 272 273 274 275 275 275 276 276 277 278 278 277 277 278 278 277 275 275 276 276 275 274 275 276 274
262 262 262 262 263 264 264 265 265 265 265 265 266 267 268 270 271 272 273 274 275 275 276 277 277 278 279 280 279 278 277 277 276 275 276 276 278 277 274 272 272 272
263 263 262 262 262 263 263 264 265 265 266 266 267 268 269 270 271 272 272 273 273 275 276 277 278 278 278 279 279 279 278 277 276 275 274 273 275 277 276 272 270 269
264 264 263 263 263 263 263 264 264 265 266 266 267 268 268 269 270 271 272 273 274 275 276 277 277 277 276 277 278 279 279 278 276 275 273 271 271 272 273 273 272 269
263 263 264 264 264 264 264 265 265 265 265 266 266 266 267 268 269 270 271 273 274 275 276 276 276 275 276 277 277 277 277 277 276 275 274 272 269 268 267 268 270 270
262 262 263 263 264 265 265 265 265 265 265 265 265 265 265 266 267 269 270 271 272 273 274 275 275 276 277 277 277 276 275 275 275 275 273 272 270 268 267 267 267 268
262 262 262 263 263 264 264 264 265 265 264 264 264 264 264 265 266 266 267 268 269 270 271 272 274 276 276 276 275 274 274 274 274 273 272 271 270 269 269 269 268 268
262 262 262 262 262 262 263 263 263 263 264 263 263 263 263 263 264 265 266 266 267 268 269 271 272 273 273 272 272 273 273 273 273 273 272 271 271 270 270 270 270 269
263 263 262 262 262 262 262 262 262 263 263 263 263 263 263 263 264 264 265 266 267 268 269 269 269 269 268 267 269 272 274 275 274 274 273 272 272 271 271 270 270 269
Height
5735 5736 5736 5737 5737 5738 5738 5739 5739 5739 5739 5740 5740 5740 5740 5740 5740 5740 5740 5740 5740 5741 5741 5741 5741 5741 5741 5742 5742 5743 5743 5744 5744 5744 5745 5745 5745 5746 5746 5746 5747 5748
5733 5733 5734 5734 5735 5735 5735 5736 5736 5736 5736 5736 5737 5737 5737 5737 5737 5737 5738 5738 5738 5738 5739 5739 5739 5739 5739 5739 5740 5740 5741 5741 5742 5742 5743 5743 5743 5744 5744 5744 5745 5745
5730 5731 5731 5732 5732 5733 5733 5733 5733 5733 5733 5733 5733 5733 5734 5734 5735 5735 5735 5735 5735 5735 5736 5736 5736 5737 5737 5737 5738 5738 5738 5739 5739 5740 5740 5741 5742 5742 5742 5743 5743 5744
5727 5728 5728 5729 5730 5730 5730 5730 5730 5730 5730 5730 5730 5731 5731 5731 5731 5732 5732 5732 5732 5733 5733 5733 5733 5734 5734 5734 5735 5735 5736 5736 5737 5737 5738 5738 5739 5740 5740 5741 5741 5742
5723 5724 5725 5726 5726 5726 5726 5727 5727 5728 5728 5728 5728 5728 5728 5729 5729 5729 5729 5729 5730 5730 5730 5730 5730 5731 5731 5731 5732 5732 5733 5733 5734 5735 5735 5736 5736 5737 5737 5738 5738 5739
5721 5721 5722 5722 5723 5723 5723 5724 5724 5725 5725 5726 5726 5726 5726 5726 5726 5726 5727 5727 5727 5727 5728 5728 5728 5728 5728 5728 5729 5729 5729 5730 5731 5731 5732 5733 5733 5734 5734 5735 5735 5736
5717 5718 5718 5719 5719 5720 5720 5720 5721 5722 5722 5723 5724 5724 5724 5724 5724 5724 5724 5724 5725 5725 5725 5725 5725 5725 5726 5726 5726 5726 5726 5727 5728 5728 5729 5729 5730 5730 5731 5732 5732 5733
5714 5714 5715 5716 5716 5717 5717 5717 5718 5718 5719 5720 5721 5721 5721 5722 5722 5722 5722 5722 5722 5722 5723 5723 5723 5723 5723 5723 5723 5723 5724 5724 5725 5726 5726 5726 5727 5727 5728 5728 5729 5729
5711 5711 5711 5712 5713 5713 5713 5713 5714 5714 5715 5716 5717 5718 5718 5719 5719 5719 5719 5719 5719 5719 5719 5720 5720 5720 5720 5720 5720 5721 5721 5721 5722 5723 5723 5723 5724 5724 5724 5725 5725 5726
5708 5707 5707 5707 5708 5709 5710 5710 5710 5710 5711 5712 5713 5714 5715 5715 5716 5717 5717 5717 5716 5716 5716 5716 5717 5717 5717 5717 5717 5718 5718 5718 5718 5719 5719 5720 5720 5721 5721 5721 5722 5722
5704 5704 5704 5704 5704 5705 5706 5706 5706 5706 5707 5708 5709 5710 5711 5712 5713 5713 5713 5713 5713 5713 5713 5713 5714 5714 5714 5714 5714 5714 5715 5715 5715 5715 5715 5715 5716 5717 5717 5717 5718 5718
5699 5700 5700 5700 5701 5701 5702 5702 5702 5702 5702 5703 5704 5705 5707 5708 5708 5708 5709 5709 5709 5710 5710 5710 5710 5710 5710 5711 5710 5711 5711 5711 5711 5711 5711 5712 5712 5712 5713 5713 5714 5714
5694 5695 5695 5696 5697 5697 5697 5698 5698 5698 5698 5698 5699 5700 5701 5703 5703 5703 5704 5704 5704 5705 5706 5706 5707 5707 5707 5707 5706 5707 5707 5707 5707 5707 5707 5708 5708 5709 5709 5709 5710 5710
5689 5689 5690 5690 5691 5692 5693 5693 5693 5693 5693 5694 5694 5695 5696 5698 5698 5699 5699 5699 5700 5700 5701 5702 5702 5703 5703 5703 5702 5702 5703 5703 5703 5703 5703 5703 5704 5704 5705 5705 5705 5705
5683 5684 5684 5685 5685 5687 5688 5688 5688 5688 5688 5689 5690 5690 5691 5692 5693 5693 5694 5694 5694 5695 5696 5696 5696 5697 5698 5698 5698 5698 5698 5699 5699 5699 5699 5698 5699 5699 5699 5700 5700 5700
5677 5678 5679 5679 5680 5681 5682 5683 5683 5683 5684 5684 5685 5685 5686 5687 5687 5688 5689 5689 5689 5689 5690 5690 5691 5692 5692 5692 5692 5692 5693 5693 5694 5694 5694 5693 5693 5693 5693 5694 5694 5694
5671 5672 5672 5673 5674 5675 5676 5677 5677 5678 5679 5679 5680 5681 5681 5681 5682 5682 5683 5683 5682 5682 5684 5684 5685 5685 5686 5686 5686 5686 5686 5687 5688 5689 5689 5688 5688 5688 5688 5688 5687 5687
5664 5665 5666 5667 5668 5669 5670 5671 5672 5673 5673 5674 5675 5675 5675 5676 5676 5676 5676 5676 5676 5676 5677 5678 5678 5679 5679 5679 5680 5680 5680 5681 5682 5683 5683 5683 5683 5682 5682 5681 5681 5681
5658 5659 5660 5661 5662 5663 5664 5665 5666 5666 5667 5668 5668 5668 5669 5669 5669 5669 5670 5670 5670 5670 5671 5671 5672 5671 5672 5672 5673 5673 5674 5674 5675 5676 5676 5676 5676 5676 5675 5675 5674 5674
5651 5652 5653 5654 5655 5656 5657 5658 5659 5660 5660 5661 5661 5662 5662 5662 5662 5663 5663 5664 5664 5664 5664 5665 5665 5664 5664 5665 5665 5666 5667 5667 5668 5668 5669 5669 5669 5669 5668 5668 5668 5667
5643 5644 5645 5646 5647 5648 5649 5650 5651 5652 5653 5654 5654 5654 5655 5655 5656 5656 5656 5656 5656 5656 5657 5657 5657 5657 5658 5658 5659 5659 5660 5660 5660 5661 5661 5662 5662 5662 5662 5661 5661 5661
5635 5636 5637 5638 5639 5640 5641 5642 5643 5644 5645 5646 5646 5647 5648 5648 5648 5648 5648 5648 5649 5649 5649 5650 5650 5650 5651 5652 5652 5652 5652 5653 5653 5653 5654 5654 5654 5654 5654 5654 5654 5654
5627 5628 5629 5630 5631 5632 5633 5633 5635 5636 5637 5638 5639 5639 5640 5641 5641 5641 5641 5641 5641 5642 5642 5642 5642 5643 5644 5645 5645 5645 5645 5646 5646 5646 5646 5646 5646 5646 5646 5647 5647 5647
5619 5620 5621 5622 5623 5624 5624 5625 5626 5627 5629 5629 5630 5632 5633 5633 5633 5634 5634 5635 5635 5635 5635 5636 5636 5637 5637 5637 5636 5637 5638 5639 5639 5638 5638 5638 5638 5638 5638 5639 5639 5640
5611 5612 5613 5614 5615 5616 5616 5617 5618 5619 5620 5621 5622 5623 5625 5625 5625 5626 5626 5627 5627 5627 5628 5630 5630 5630 5629 5629 5629 5630 5631 5631 5631 5630 5630 5630 5630 5630 5631 5631 5631 5631
5603 5604 5605 5606 5607 5608 5608 5609 5610 5611 5612 5613 5614 5615 5616 5617 5617 5618 5618 5619 5619 5620 5622 5623 5623 5622 5622 5622 5623 5624 5624 5625 5624 5623 5622 5622 5623 5623 5623 5623 5623 5622